OBJECT C, 60014

Orbit data source: Space-Track

You're viewing an Uncataloged Satellite

Recently launched and/or uncataloged satellites may have evolving metadata. Metadata may include but not limited to: Owner, Maufacturer, Bus, Motor, and Mission.

OBJECT C, 60014 is a satellite owned by Tsinghua (CN) in SSO that was launched on Thu, 06 Jun 2024 UTC via a GUSHENXING 1 launch vehicle from the Jiuquan Satellite Launch Center, China (JSC). Unknown objects in Earth's orbit typically refer to objects detected orbiting the Earth but have not yet been identified or cataloged. These objects could be anything from previously untracked satellites, spent rocket stages, debris from satellite collisions, or even natural meteoroids temporarily captured by Earth's gravity.

Loading next visibility...
Identifier
60014, 2024-110C
Orbit
SSO
Country
Flag of CNCN / PRC
Related business
Manufacturer
Tsinghua
Mission
Operational Amateur Imaging
Bus & Motor
NAXING, Unknown motor
Mass
20 kg wet, 20 kg dry
Launch date (UTC)
2024-06-06 (2 years ago)
Launch vehicle
GUSHENXING 1
Launch site
Jiuquan Satellite Launch Center, China (JSC)
Object type
Unknown
Shape & HBR
Box, 0.2 m
Radar Cross Section
0.240 m², Large (>1 m²)

Expand to show TLE details & history
Last TLE update: 7 hours ago

TLE from 7 hours ago
0 OBJECT C
1 60014U 24110C   26037.85870841  .00002362  00000-0  20564-3 0  9991
2 60014  97.5570 117.3867 0010664 222.9043 137.1349 14.97818980 82292
Epoch: 2026-02-06T20:36Z
TLE epoch observation values (Epoch: 2026-02-06T20:36:32.406Z)
Latitude
0.00001°
Longitude
31.26113°
Altitude
582.131 km
Speed
7.566 km/s
True Right ascension
07h 49m 32s
True Declination
0° 00' 00"
Sunlit
Object was in full shadow at epoch
Visualization orbit readout
Latitude
Unknown
Longitude
Unknown
Altitude
Unknown
Speed
Unknown
Apparent Right ascension
Unknown
Apparent Declination
Unknown
Sunlit
N/A
Visualization observer readout
Local Sidereal Time
05:15:30
Azimuth
Unknown
Elevation
Unknown
Doppler factor
Unknown
Orbital elements
Apogee altitude
578.049 km
Perigee altitude
563.228 km
Semi-major axis
6,948.776 km
Eccentricity
0.00107
Inclination
97.557°
RAAN
117.3867°
Arg. of periapsis
222.9043°
True anomaly
137.21795°
Mean anomaly
137.1349°
Eccentric anomaly
137.17643°
Mean motion
3.74697 °/min
Orbital period
96.08 mins
BSTAR
0.00020564
Loading maneuver chart data...
Computing Atmospheric mass density...
Loading historical data...
Loading historical data...
Loading historical data...
Loading historical data...
Loading historical data...
Loading historical data...
Loading historical data...
Other satellites on launch #110 in the year 2024 (2024-06-06 UTC)

Documentation

Showing up to 5 results
|